EHI
0 0 0 0 0 0 0 0 0 1 3 6 12 21 30 35 38 41 44 44 42 34 24 18 14 10 9 11 12 11 11 13 14 13 8 6 6 6 5 5 5 4 3 3
0 0 0 0 0 0 0 1 1 3 6 9 15 23 29 33 36 40 43 43 39 31 23 17 13 12 10 9 10 9 11 13 14 12 9 7 6 6 6 6 6 4 2 1
0 0 0 0 0 1 1 2 4 7 11 16 21 24 26 29 34 38 39 35 30 24 18 14 12 13 12 10 9 8 10 13 14 12 9 7 6 6 6 6 6 4 2 0
0 0 0 0 0 2 3 5 8 13 20 23 26 28 28 28 31 33 31 26 21 18 16 14 13 15 14 12 11 9 8 10 12 10 8 7 6 6 6 5 4 3 1 0
0 0 0 0 0 2 5 8 12 18 23 26 29 31 30 27 27 27 25 23 20 17 17 16 15 15 14 12 12 10 8 7 9 9 8 7 7 6 5 4 3 2 1 0
0 0 0 1 2 3 5 8 13 18 21 22 25 28 27 24 25 26 26 24 22 19 17 15 12 11 12 11 10 10 9 9 10 10 10 8 7 5 4 3 3 2 0 0
0 0 0 2 4 4 4 6 11 14 16 17 19 22 22 22 25 27 26 23 21 18 15 10 7 8 8 8 8 8 9 10 9 9 9 7 6 4 3 3 3 1 0 0
0 0 0 2 4 4 4 8 11 12 13 16 18 20 20 22 25 25 21 17 15 14 11 6 4 4 4 4 4 5 7 7 6 5 5 5 4 3 3 3 2 1 0 0
0 0 0 1 2 3 6 12 15 15 16 19 19 19 19 19 21 19 16 13 11 10 7 4 2 2 2 2 2 2 4 4 3 2 2 2 2 2 2 2 2 1 0 0
0 0 1 2 3 5 11 16 18 18 19 20 18 16 16 16 15 13 12 10 9 6 4 3 1 1 1 1 0 1 1 1 1 1 1 1 1 1 1 1 1 0 0 0
0 0 2 3 5 10 15 16 16 17 17 16 13 11 11 11 10 9 9 8 6 5 4 2 2 1 1 0 0 0 0 0 0 0 0 0 0 0 0 0 0 0 0 0
0 0 1 4 7 10 12 12 11 11 10 8 7 7 7 8 7 7 6 6 5 4 3 1 1 1 0 0 0 0 0 0 0 0 0 0 0 0 0 0 0 0 0 0
1 1 2 4 6 7 6 6 6 5 4 4 4 5 5 6 6 5 4 4 4 3 2 0 0 0 0 0 0 0 0 0 0 0 0 0 0 0 0 0 0 0 0 0
2 2 2 4 4 3 2 2 2 1 1 2 3 3 3 3 3 3 3 3 3 3 2 1 0 0 0 0 0 0 0 0 0 0 0 0 0 0 0 0 0 0 0 0
1 1 1 3 3 2 1 1 0 0 0 1 1 1 1 1 1 1 1 2 3 3 2 1 0 0 0 0 0 0 0 0 0 0 0 0 0 0 0 0 0 0 0 0
0 0 1 2 2 2 1 0 0 0 0 0 0 0 0 0 0 0 0 1 1 2 2 1 0 0 0 0 0 0 0 0 0 0 0 0 0 0 0 0 0 0 0 0
0 0 1 2 1 1 1 0 0 0 0 0 0 0 0 0 0 0 0 0 0 1 1 0 0 0 0 0 0 0 0 0 0 0 0 0 0 0 0 0 0 0 0 0
0 0 1 1 0 0 0 0 0 0 0 0 0 0 0 0 0 0 0 0 0 0 0 0 0 0 0 0 0 0 0 0 0 0 0 0 0 0 0 0 0 0 0 0
0 0 0 0 0 0 0 0 0 0 0 0 0 0 0 0 0 0 0 0 0 0 0 0 0 0 0 0 0 0 0 0 0 0 0 0 0 0 0 0 0 0 0 0
0 0 0 0 0 0 0 0 0 0 0 0 0 0 0 0 0 0 0 0 0 0 0 0 0 0 0 0 0 0 0 0 0 0 0 0 0 0 0 0 0 0 0 0
0 0 0 0 0 0 0 0 0 0 0 0 0 0 0 0 0 0 0 0 0 0 0 0 0 0 0 0 0 0 0 0 0 0 0 0 0 0 0 0 0 0 0 0
0 0 0 0 0 0 0 0 0 0 0 0 0 0 0 0 0 0 0 0 0 0 0 0 0 0 0 0 0 0 0 0 0 0 0 0 0 0 0 0 0 0 0 0
0 0 0 0 0 0 0 0 0 0 0 0 0 0 0 0 0 0 0 0 0 0 0 0 0 0 0 0 0 0 0 0 0 0 0 0 0 0 0 0 0 0 0 0
0 0 0 0 0 0 0 0 0 0 0 0 0 0 0 0 0 0 0 0 0 0 0 0 0 0 0 0 0 0 0 0 0 0 0 0 0 0 0 0 0 0 0 0
0 0 0 0 0 0 0 0 0 0 0 0 0 0 0 0 0 0 0 0 0 0 0 0 0 0 0 0 0 0 0 0 0 0 0 0 0 0 0 0 0 0 0 0
0 0 0 0 0 0 0 0 0 0 0 0 0 0 0 0 0 0 0 0 0 0 0 0 0 0 0 0 0 0 0 0 0 0 0 0 0 0 0 0 0 0 0 0
0 0 0 0 0 0 0 0 0 0 0 0 0 0 0 0 0 0 0 0 0 0 0 0 0 0 0 0 0 0 0 0 0 0 0 0 0 0 0 0 0 0 0 0
Wind_Speed
5 5 4 4 5 5 6 9 9 8 9 10 8 8 7 7 9 10 8 7 7 5 4 3 3 2 2 3 3 4 4 4 3 3 2 2 2 2 2 3 3 2 3 2
1 1 1 1 3 4 5 6 6 7 4 4 6 6 7 6 9 9 7 7 7 5 4 4 3 2 2 3 3 4 4 4 3 3 3 3 3 3 4 4 4 4 4 4
1 2 3 2 4 4 4 5 9 9 8 10 9 9 8 8 8 8 7 7 6 5 4 3 3 4 3 3 3 4 4 4 4 4 4 4 4 5 5 5 5 5 5 5
2 2 3 8 4 3 4 2 4 7 10 13 12 9 6 6 8 7 6 6 5 4 3 3 3 3 3 4 4 5 4 4 4 5 5 5 5 5 5 5 5 5 6 5
4 2 3 4 2 1 4 1 2 10 13 13 13 10 6 4 7 7 5 4 4 4 4 4 4 4 5 5 4 5 4 4 4 5 6 6 6 6 5 6 6 6 6 6
4 3 5 6 4 1 7 1 1 9 14 14 10 7 4 6 8 8 7 5 5 5 6 6 4 5 6 5 5 5 4 5 5 5 6 7 6 6 5 6 6 6 7 7
4 3 5 4 4 2 5 6 3 7 10 9 6 7 8 8 8 8 8 7 7 7 6 5 4 6 7 6 5 4 5 6 7 6 7 7 6 6 6 7 7 7 8 7
4 3 5 4 3 3 4 3 7 7 7 8 10 12 11 9 9 9 8 8 8 7 6 5 5 7 8 6 5 5 7 8 8 7 6 7 7 7 6 7 8 7 7 7
4 5 3 1 1 2 5 7 7 7 8 12 13 12 11 9 9 8 9 9 8 8 8 6 6 6 8 5 5 7 8 8 8 9 8 7 7 7 6 5 6 5 5 6
2 1 2 4 5 5 6 7 8 10 10 11 13 12 12 10 9 8 8 8 7 8 9 7 6 6 6 5 7 9 9 8 8 9 9 9 7 6 6 5 5 5 5 5
2 1 4 5 5 6 7 9 11 10 9 10 14 14 12 11 9 8 8 7 7 7 8 7 5 6 5 5 7 9 9 9 8 8 8 9 9 7 6 5 3 5 4 4
4 3 2 1 2 6 9 9 10 12 10 8 10 12 12 10 9 8 8 8 8 8 8 6 6 6 5 5 7 9 9 7 6 6 6 7 8 9 14 11 13 12 10 7
4 3 3 3 4 7 8 10 11 11 11 11 9 11 11 10 8 9 9 9 9 8 7 6 6 6 5 5 7 8 8 7 6 6 6 5 6 7 7 9 13 14 12 11
6 6 4 4 6 8 11 11 11 11 10 10 10 11 11 11 10 10 9 8 8 8 7 7 7 6 4 5 7 8 7 8 7 6 5 5 5 5 6 6 6 5 7 9
3 5 6 7 8 10 11 12 12 10 10 10 10 11 11 11 10 9 8 8 8 9 7 7 7 5 4 6 7 7 7 5 6 5 5 5 5 5 5 6 5 4 3 5
6 8 10 11 10 10 12 13 12 10 10 11 10 11 11 11 10 9 7 7 8 8 6 6 6 4 5 6 7 6 6 10 9 6 6 5 5 5 5 5 5 4 3 3
8 8 10 11 10 10 10 10 10 10 10 11 11 11 11 11 10 9 8 7 7 7 6 6 5 4 5 6 6 5 5 7 10 7 5 5 5 5 5 5 4 4 3 4
7 8 9 11 11 11 11 11 11 11 10 10 11 11 11 10 9 8 7 7 8 8 6 4 4 5 6 6 5 5 5 5 5 5 5 5 5 5 5 5 5 5 4 4
8 10 10 11 11 11 11 11 10 10 10 10 11 10 9 9 8 7 7 8 8 6 3 4 7 6 5 5 6 5 5 6 5 5 5 7 6 5 5 5 5 4 4 4
9 11 12 11 10 11 11 11 11 10 9 10 12 11 10 8 8 8 8 7 4 2 2 4 5 5 4 5 6 5 5 6 5 5 5 5 5 5 5 5 5 4 4 4
10 11 12 12 11 10 10 11 11 11 10 10 11 11 10 8 8 7 8 6 3 3 5 7 5 4 4 5 7 5 6 6 5 5 5 5 5 5 5 4 4 4 4 3
9 10 12 12 11 10 9 9 10 12 11 10 10 10 10 9 8 7 6 4 3 6 5 4 4 5 7 7 5 5 5 6 5 5 5 5 5 5 4 4 4 4 3 3
9 10 11 11 11 11 10 9 10 10 10 10 10 9 9 7 6 7 5 2 3 7 5 4 6 10 10 6 4 5 5 6 5 5 4 4 4 4 4 4 3 3 3 3
9 10 10 10 11 12 11 9 9 8 9 8 8 8 8 7 5 4 4 5 7 8 5 6 10 10 8 5 4 5 5 5 5 5 5 4 4 3 3 3 3 3 3 3
9 9 10 11 10 9 9 10 10 9 9 7 7 7 6 5 6 4 4 5 7 7 5 7 10 9 6 4 5 5 4 4 4 5 4 4 4 3 3 3 3 3 3 3
8 7 7 7 7 7 7 7 7 6 7 7 6 5 5 5 6 5 4 5 6 6 4 3 4 5 4 4 4 4 4 4 5 4 4 4 4 4 3 3 4 3 3 3
8 7 6 6 5 5 6 7 7 6 6 7 7 5 5 5 5 5 5 4 4 4 3 3 3 3 4 4 4 4 4 4 4 4 4 3 3 3 3 4 3 3 3 3
Wind_Direction
201 200 176 193 200 182 171 178 176 200 187 199 186 158 140 129 122 119 118 115 114 114 112 116 110 109 119 125 138 138 139 147 154 157 140 122 120 124 118 109 107 105 99 98
264 237 143 226 237 198 184 167 154 148 194 184 136 123 117 124 128 128 130 126 123 121 123 126 124 127 115 114 127 132 140 139 132 125 119 114 110 105 97 91 85 85 81 84
248 309 64 284 249 214 196 174 157 176 188 150 140 141 147 146 138 134 140 138 133 133 136 135 139 143 140 134 125 124 126 125 122 119 110 105 101 98 95 92 87 82 80 83
135 82 202 240 250 173 155 156 155 145 149 152 144 131 123 132 130 131 141 142 136 131 127 126 129 134 126 116 118 120 119 115 118 117 110 101 98 94 85 81 83 80 78 79
121 159 260 287 315 100 117 8 124 138 139 131 124 99 83 117 126 129 135 137 127 122 116 108 112 115 109 106 104 112 120 120 120 122 116 108 102 98 94 91 82 74 74 73
123 148 214 246 277 248 104 66 207 143 147 148 137 127 168 152 128 120 115 109 107 104 94 97 105 106 99 95 97 102 112 115 111 112 113 110 106 100 92 90 87 82 72 65
145 176 249 268 291 57 129 205 173 145 147 149 147 150 146 133 117 115 113 107 102 97 88 90 98 101 99 94 94 93 98 99 96 96 102 105 100 93 93 91 89 83 78 67
142 166 243 312 22 127 180 149 134 131 133 121 115 117 121 120 116 113 108 104 102 98 88 79 84 96 96 93 94 89 89 92 91 88 94 97 96 92 92 97 95 88 84 74
176 198 243 349 106 142 129 124 124 124 129 126 121 123 121 116 114 111 109 106 103 102 92 78 75 90 99 98 100 96 89 89 89 83 74 79 88 93 89 88 92 90 87 83
74 36 41 58 71 66 81 109 117 124 131 131 126 127 121 117 113 109 104 102 101 101 95 83 74 78 93 100 103 101 97 92 89 86 77 66 64 68 80 83 91 91 89 87
76 87 46 40 67 86 88 97 106 109 116 128 126 124 123 120 118 114 108 100 99 100 99 93 85 82 89 100 108 105 101 97 93 89 91 83 71 57 62 51 78 103 98 97
195 198 150 191 109 99 100 107 118 118 104 104 115 118 117 117 115 113 109 106 102 98 98 95 92 85 81 93 108 111 108 104 104 102 98 99 98 78 54 62 67 74 86 96
170 151 129 133 112 102 102 109 114 115 117 114 108 110 110 110 107 106 105 106 107 105 104 101 94 87 85 97 105 111 117 116 112 111 110 108 106 107 96 65 60 64 69 76
130 118 106 113 118 109 108 104 103 104 104 109 112 108 107 105 102 102 103 104 104 102 99 97 94 87 86 102 106 108 113 116 117 115 115 112 110 107 109 111 98 65 53 67
121 125 130 123 111 109 112 109 107 108 110 105 104 106 108 106 105 104 102 101 100 96 93 92 89 81 77 96 104 108 110 111 111 109 108 111 112 106 103 101 100 96 77 59
116 116 121 125 123 120 119 119 118 116 114 111 109 108 109 109 108 103 96 99 103 100 98 95 91 92 93 96 98 99 105 114 114 112 109 105 106 109 107 104 101 94 84 76
130 134 133 134 131 127 122 122 121 118 115 114 115 115 114 111 106 102 97 91 93 91 89 91 91 91 94 96 99 102 106 113 112 107 107 112 110 108 108 107 103 96 87 92
140 138 138 140 137 128 123 119 117 117 120 121 118 117 116 115 115 112 106 97 87 76 65 71 84 90 90 92 98 102 105 107 107 109 109 109 109 106 105 108 109 106 94 90
112 116 118 121 127 126 124 120 119 117 119 121 120 117 113 112 113 109 104 97 94 85 60 67 84 85 87 93 100 101 104 106 106 105 106 108 104 103 107 108 106 103 103 96
107 111 111 113 118 120 122 122 120 117 119 121 119 116 113 111 109 105 97 89 87 110 106 87 83 80 83 95 102 104 106 108 108 106 102 104 107 108 108 109 109 107 104 104
115 115 114 112 114 116 119 123 123 121 120 120 120 121 119 114 110 107 102 92 62 79 86 82 80 78 81 93 95 99 102 104 105 106 109 110 109 110 111 111 111 112 112 111
117 118 117 116 115 114 115 117 120 120 119 117 116 116 115 112 106 95 85 100 101 90 83 73 76 82 92 92 89 98 102 103 104 105 107 111 113 116 117 118 118 117 117 120
116 117 117 118 119 117 111 111 116 119 121 122 123 122 119 116 116 115 106 89 91 90 85 81 89 87 87 83 84 93 100 103 107 109 111 113 115 119 121 121 121 123 125 127
113 113 115 115 113 112 112 112 109 110 111 110 111 116 117 110 93 87 113 111 103 96 89 91 86 82 82 81 85 90 93 97 101 103 103 101 102 105 113 118 121 129 129 125
115 115 116 118 117 117 119 117 110 107 106 102 101 102 105 112 120 123 112 107 105 95 87 85 86 83 79 82 87 91 94 100 107 109 105 105 104 104 106 110 115 119 124 128
115 115 114 116 121 124 123 120 118 118 116 112 107 107 105 105 110 109 105 103 101 97 89 78 81 84 84 86 89 91 90 94 96 97 104 108 110 109 108 107 106 114 125 129
110 111 111 109 110 117 121 121 122 123 124 123 118 116 115 112 110 108 106 100 97 94 90 83 85 92 94 94 91 90 91 93 96 100 102 103 106 112 120 121 120 120 121 122